Time,TemperatureF,DewpointF,PressureIn,WindDirection,WindDirectionDegrees,WindSpeedMPH,WindSpeedGustMPH,Humidity,HourlyPrecipIn,Conditions,Clouds,dailyrainin,SoftwareType,DateUTC
2013-08-08 00:00:00,70.9,67.2,30.03,SE,130,0.0,0.0,88,0.07,,,0.04,Wunderground v.1.13,2013-08-08 04:00:00,
2013-08-08 00:05:00,70.8,67.4,30.03,SE,130,0.0,0.0,89,0.05,,,0.00,Wunderground v.1.13,2013-08-08 04:05:00,
2013-08-08 00:10:00,70.6,67.2,30.03,SE,130,0.0,0.0,89,0.00,,,0.00,Wunderground v.1.13,2013-08-08 04:10:00,
2013-08-08 00:15:00,70.4,67.3,30.03,SE,127,0.0,0.0,90,0.00,,,0.00,Wunderground v.1.13,2013-08-08 04:15:00,
2013-08-08 00:25:00,70.3,67.5,30.03,SE,127,0.0,0.0,91,0.00,,,0.00,Wunderground v.1.13,2013-08-08 04:25:00,
2013-08-08 00:30:00,70.1,67.3,30.03,SE,133,0.0,0.0,91,0.00,,,0.00,Wunderground v.1.13,2013-08-08 04:30:00,
2013-08-08 00:35:00,70.1,67.7,30.03,SE,133,0.0,0.0,92,0.00,,,0.01,Wunderground v.1.13,2013-08-08 04:35:00,
2013-08-08 00:40:00,70.1,67.7,30.03,SE,133,0.0,0.0,92,0.00,,,0.01,Wunderground v.1.13,2013-08-08 04:40:00,
2013-08-08 00:45:00,69.9,67.5,30.02,SE,133,0.0,0.0,92,0.00,,,0.01,Wunderground v.1.13,2013-08-08 04:45:00,
2013-08-08 00:55:00,69.9,67.5,30.02,SE,133,0.0,0.0,92,0.00,,,0.01,Wunderground v.1.13,2013-08-08 04:55:00,
2013-08-08 01:00:00,69.9,67.5,30.02,ESE,117,0.0,0.0,92,0.00,,,0.01,Wunderground v.1.13,2013-08-08 05:00:00,
2013-08-08 01:10:00,69.9,67.8,30.02,SE,127,0.0,0.0,93,0.00,,,0.02,Wunderground v.1.13,2013-08-08 05:10:00,
2013-08-08 01:15:00,69.9,67.8,30.02,SE,127,0.0,0.0,93,0.00,,,0.02,Wunderground v.1.13,2013-08-08 05:15:00,
2013-08-08 01:25:00,69.8,67.7,30.02,SE,127,0.0,0.0,93,0.00,,,0.02,Wunderground v.1.13,2013-08-08 05:25:00,
2013-08-08 01:30:00,69.8,67.7,30.01,SE,127,0.0,0.0,93,0.00,,,0.03,Wunderground v.1.13,2013-08-08 05:30:00,
2013-08-08 01:40:00,69.8,67.7,30.01,SE,127,0.0,0.0,93,0.00,,,0.03,Wunderground v.1.13,2013-08-08 05:40:00,
2013-08-08 01:45:00,69.8,67.7,30.01,SE,127,0.0,1.0,93,0.00,,,0.03,Wunderground v.1.13,2013-08-08 05:45:00,
2013-08-08 01:50:00,69.8,68.0,30.01,SE,127,0.0,0.0,94,0.00,,,0.04,Wunderground v.1.13,2013-08-08 05:50:00,
2013-08-08 01:55:00,69.8,68.0,30.01,SE,127,0.0,0.0,94,0.11,,,0.05,Wunderground v.1.13,2013-08-08 05:55:00,
2013-08-08 02:00:00,69.9,68.1,30.01,SE,127,0.0,0.0,94,0.44,,,0.07,Wunderground v.1.13,2013-08-08 06:00:00,
2013-08-08 02:10:00,69.9,68.1,30.01,SE,127,0.0,0.0,94,0.11,,,0.11,Wunderground v.1.13,2013-08-08 06:10:00,
2013-08-08 02:15:00,69.8,68.0,30.00,SE,127,0.0,0.0,94,0.25,,,0.13,Wunderground v.1.13,2013-08-08 06:15:00,
2013-08-08 02:25:00,69.8,68.0,30.00,SE,127,0.0,0.0,94,0.14,,,0.15,Wunderground v.1.13,2013-08-08 06:25:00,
2013-08-08 02:30:00,69.8,68.0,30.00,SE,127,0.0,0.0,94,0.10,,,0.16,Wunderground v.1.13,2013-08-08 06:30:00,
2013-08-08 02:40:00,69.8,68.3,30.00,SE,127,0.0,0.0,95,0.04,,,0.16,Wunderground v.1.13,2013-08-08 06:40:00,
2013-08-08 02:45:00,69.8,68.3,30.00,SE,127,0.0,0.0,95,0.00,,,0.16,Wunderground v.1.13,2013-08-08 06:45:00,
2013-08-08 02:50:00,69.8,68.3,30.00,SE,127,0.0,0.0,95,0.00,,,0.16,Wunderground v.1.13,2013-08-08 06:50:00,
2013-08-08 02:55:00,69.8,68.3,30.00,SE,127,0.0,2.0,95,0.00,,,0.16,Wunderground v.1.13,2013-08-08 06:55:00,
2013-08-08 03:00:00,69.8,68.3,30.00,SE,127,0.0,0.0,95,0.00,,,0.16,Wunderground v.1.13,2013-08-08 07:00:00,
2013-08-08 03:10:00,69.9,68.4,30.00,ESE,112,0.0,0.0,95,0.00,,,0.16,Wunderground v.1.13,2013-08-08 07:10:00,
2013-08-08 03:15:00,69.9,68.4,30.00,ESE,112,0.0,0.0,95,0.00,,,0.16,Wunderground v.1.13,2013-08-08 07:15:00,
2013-08-08 03:25:00,69.9,68.4,30.00,ESE,112,0.0,0.0,95,0.00,,,0.16,Wunderground v.1.13,2013-08-08 07:25:00,
2013-08-08 03:30:00,69.9,68.4,30.00,ESE,112,0.0,0.0,95,0.00,,,0.16,Wunderground v.1.13,2013-08-08 07:30:00,
2013-08-08 03:40:00,69.9,68.4,30.00,ESE,112,0.0,0.0,95,0.00,,,0.16,Wunderground v.1.13,2013-08-08 07:40:00,
2013-08-08 03:45:00,69.9,68.4,30.00,ESE,112,0.0,0.0,95,0.00,,,0.16,Wunderground v.1.13,2013-08-08 07:45:00,
2013-08-08 03:50:00,69.9,68.4,30.00,ESE,112,0.0,0.0,95,0.00,,,0.16,Wunderground v.1.13,2013-08-08 07:50:00,
2013-08-08 03:55:00,69.9,68.4,30.00,ESE,112,0.0,0.0,95,0.00,,,0.16,Wunderground v.1.13,2013-08-08 07:55:00,
2013-08-08 04:00:00,69.9,68.4,30.00,ESE,112,0.0,0.0,95,0.00,,,0.16,Wunderground v.1.13,2013-08-08 08:00:00,
2013-08-08 04:10:00,69.9,68.4,30.00,ESE,112,0.0,0.0,95,0.00,,,0.16,Wunderground v.1.13,2013-08-08 08:10:00,
2013-08-08 04:15:00,69.9,68.4,30.00,SE,138,1.0,1.0,95,0.00,,,0.16,Wunderground v.1.13,2013-08-08 08:15:00,
2013-08-08 04:25:00,69.6,68.1,30.00,SE,138,0.0,0.0,95,0.00,,,0.16,Wunderground v.1.13,2013-08-08 08:25:00,
2013-08-08 04:30:00,69.6,68.1,29.99,SE,138,0.0,0.0,95,0.00,,,0.16,Wunderground v.1.13,2013-08-08 08:30:00,
2013-08-08 04:40:00,69.6,68.1,29.99,SE,138,0.0,0.0,95,0.00,,,0.16,Wunderground v.1.13,2013-08-08 08:40:00,
2013-08-08 04:45:00,69.8,68.3,30.00,SE,138,0.0,0.0,95,0.00,,,0.16,Wunderground v.1.13,2013-08-08 08:45:00,
2013-08-08 04:50:00,69.8,68.3,30.00,SE,138,0.0,0.0,95,0.00,,,0.16,Wunderground v.1.13,2013-08-08 08:50:00,
2013-08-08 04:55:00,69.8,68.3,30.00,SE,138,0.0,0.0,95,0.00,,,0.16,Wunderground v.1.13,2013-08-08 08:55:00,
2013-08-08 05:05:00,69.8,68.3,30.00,SE,138,0.0,0.0,95,0.00,,,0.16,Wunderground v.1.13,2013-08-08 09:05:00,
2013-08-08 05:10:00,69.8,68.3,30.00,SE,138,0.0,0.0,95,0.00,,,0.16,Wunderground v.1.13,2013-08-08 09:10:00,
2013-08-08 05:20:00,69.8,68.3,30.00,SE,138,0.0,0.0,95,0.00,,,0.16,Wunderground v.1.13,2013-08-08 09:20:00,
2013-08-08 05:25:00,69.8,68.3,30.00,SE,138,0.0,1.0,95,0.00,,,0.16,Wunderground v.1.13,2013-08-08 09:25:00,
2013-08-08 05:30:00,69.6,68.1,30.00,SE,133,0.0,0.0,95,0.00,,,0.16,Wunderground v.1.13,2013-08-08 09:30:00,
2013-08-08 05:40:00,69.4,67.9,30.00,SE,138,0.0,2.0,95,0.00,,,0.16,Wunderground v.1.13,2013-08-08 09:40:00,
2013-08-08 05:45:00,69.4,67.9,30.00,SE,138,0.0,0.0,95,0.00,,,0.16,Wunderground v.1.13,2013-08-08 09:45:00,
2013-08-08 05:55:00,69.3,67.8,30.00,SE,138,0.0,0.0,95,0.00,,,0.16,Wunderground v.1.13,2013-08-08 09:55:00,
2013-08-08 06:00:00,69.3,67.8,30.00,SE,138,0.0,0.0,95,0.00,,,0.16,Wunderground v.1.13,2013-08-08 10:00:00,
2013-08-08 06:05:00,69.3,67.8,30.00,SE,138,0.0,0.0,95,0.00,,,0.16,Wunderground v.1.13,2013-08-08 10:05:00,
2013-08-08 06:15:00,69.3,67.8,30.00,SE,138,0.0,0.0,95,0.00,,,0.16,Wunderground v.1.13,2013-08-08 10:15:00,
2013-08-08 06:20:00,69.3,67.8,30.00,SE,137,0.0,0.0,95,0.00,,,0.16,Wunderground v.1.13,2013-08-08 10:20:00,
2013-08-08 06:25:00,69.3,67.8,30.00,SE,137,0.0,0.0,95,0.00,,,0.16,Wunderground v.1.13,2013-08-08 10:25:00,
2013-08-08 06:30:00,69.3,67.8,30.00,SE,137,0.0,0.0,95,0.00,,,0.16,Wunderground v.1.13,2013-08-08 10:30:00,
2013-08-08 06:40:00,69.3,67.8,30.00,SE,137,0.0,0.0,95,0.00,,,0.16,Wunderground v.1.13,2013-08-08 10:40:00,
2013-08-08 06:45:00,69.3,67.8,30.00,SE,137,0.0,0.0,95,0.00,,,0.17,Wunderground v.1.13,2013-08-08 10:45:00,
2013-08-08 06:55:00,69.3,67.8,30.00,SE,137,0.0,0.0,95,0.00,,,0.17,Wunderground v.1.13,2013-08-08 10:55:00,
2013-08-08 07:00:00,69.4,67.9,30.00,SE,137,0.0,0.0,95,0.00,,,0.17,Wunderground v.1.13,2013-08-08 11:00:00,
2013-08-08 07:10:00,69.4,67.9,30.00,SE,134,0.0,0.0,95,0.00,,,0.17,Wunderground v.1.13,2013-08-08 11:10:00,
2013-08-08 07:15:00,69.6,68.1,30.00,SE,126,0.0,0.0,95,0.00,,,0.17,Wunderground v.1.13,2013-08-08 11:15:00,
2013-08-08 07:20:00,69.6,68.1,30.00,SE,126,0.0,0.0,95,0.00,,,0.17,Wunderground v.1.13,2013-08-08 11:20:00,
2013-08-08 07:25:00,69.6,68.1,30.00,SE,126,0.0,0.0,95,0.00,,,0.17,Wunderground v.1.13,2013-08-08 11:25:00,
2013-08-08 07:30:00,69.6,68.1,30.00,SE,126,0.0,0.0,95,0.00,,,0.17,Wunderground v.1.13,2013-08-08 11:30:00,
2013-08-08 07:40:00,69.8,68.3,30.00,SE,126,0.0,0.0,95,0.00,,,0.17,Wunderground v.1.13,2013-08-08 11:40:00,
2013-08-08 07:45:00,69.9,68.4,30.00,SE,126,0.0,0.0,95,0.00,,,0.17,Wunderground v.1.13,2013-08-08 11:45:00,
2013-08-08 07:55:00,70.3,68.8,30.00,SE,126,0.0,0.0,95,0.00,,,0.17,Wunderground v.1.13,2013-08-08 11:55:00,
2013-08-08 08:00:00,70.4,68.9,30.00,SE,126,0.0,0.0,95,0.00,,,0.17,Wunderground v.1.13,2013-08-08 12:00:00,
2013-08-08 08:10:00,70.4,68.9,30.00,SE,126,0.0,0.0,95,0.00,,,0.17,Wunderground v.1.13,2013-08-08 12:10:00,
2013-08-08 08:15:00,70.6,69.1,30.01,SE,126,0.0,0.0,95,0.00,,,0.17,Wunderground v.1.13,2013-08-08 12:15:00,
2013-08-08 08:25:00,70.9,69.4,30.01,SE,126,0.0,0.0,95,0.00,,,0.17,Wunderground v.1.13,2013-08-08 12:25:00,
2013-08-08 08:30:00,70.9,69.4,30.01,SE,126,0.0,0.0,95,0.00,,,0.17,Wunderground v.1.13,2013-08-08 12:30:00,
2013-08-08 08:35:00,71.3,69.8,30.01,SE,126,0.0,0.0,95,0.00,,,0.17,Wunderground v.1.13,2013-08-08 12:35:00,
2013-08-08 08:40:00,71.3,69.5,30.01,WSW,240,0.0,0.0,94,0.00,,,0.17,Wunderground v.1.13,2013-08-08 12:40:00,
2013-08-08 08:45:00,71.3,69.5,30.01,WSW,240,0.0,0.0,94,0.00,,,0.17,Wunderground v.1.13,2013-08-08 12:45:00,
2013-08-08 08:55:00,71.5,69.7,30.01,WSW,240,0.0,0.0,94,0.00,,,0.17,Wunderground v.1.13,2013-08-08 12:55:00,
2013-08-08 09:00:00,71.6,69.8,30.01,WSW,240,0.0,0.0,94,0.00,,,0.17,Wunderground v.1.13,2013-08-08 13:00:00,
2013-08-08 09:10:00,71.8,70.0,30.01,WSW,240,0.0,0.0,94,0.00,,,0.17,Wunderground v.1.13,2013-08-08 13:10:00,
2013-08-08 09:15:00,72.1,70.0,30.01,WSW,240,0.0,0.0,93,0.00,,,0.17,Wunderground v.1.13,2013-08-08 13:15:00,
2013-08-08 09:25:00,72.1,70.0,30.01,WSW,240,0.0,0.0,93,0.00,,,0.17,Wunderground v.1.13,2013-08-08 13:25:00,
2013-08-08 09:30:00,72.1,69.6,30.01,WSW,240,0.0,0.0,92,0.00,,,0.17,Wunderground v.1.13,2013-08-08 13:30:00,
2013-08-08 09:35:00,72.1,69.6,30.01,WSW,240,0.0,0.0,92,0.00,,,0.17,Wunderground v.1.13,2013-08-08 13:35:00,
2013-08-08 09:45:00,72.1,69.6,30.02,WSW,240,0.0,0.0,92,0.00,,,0.17,Wunderground v.1.13,2013-08-08 13:45:00,
2013-08-08 09:50:00,72.3,69.8,30.02,WSW,240,0.0,0.0,92,0.00,,,0.17,Wunderground v.1.13,2013-08-08 13:50:00,
2013-08-08 09:55:00,72.3,69.8,30.02,WSW,240,0.0,0.0,92,0.00,,,0.17,Wunderground v.1.13,2013-08-08 13:55:00,
2013-08-08 10:00:00,72.5,70.0,30.01,WSW,240,0.0,0.0,92,0.00,,,0.17,Wunderground v.1.13,2013-08-08 14:00:00,
2013-08-08 10:10:00,72.7,69.9,30.01,WSW,240,0.0,0.0,91,0.00,,,0.17,Wunderground v.1.13,2013-08-08 14:10:00,
2013-08-08 10:15:00,72.7,69.9,30.01,WSW,240,0.0,0.0,91,0.00,,,0.17,Wunderground v.1.13,2013-08-08 14:15:00,
2013-08-08 10:25:00,72.8,70.3,30.01,WSW,240,0.0,0.0,92,0.00,,,0.17,Wunderground v.1.13,2013-08-08 14:25:00,
2013-08-08 10:35:00,73.2,70.1,30.01,WSW,240,0.0,0.0,90,0.00,,,0.17,Wunderground v.1.13,2013-08-08 14:35:00,
2013-08-08 10:45:00,73.5,70.1,30.00,WSW,240,0.0,0.0,89,0.00,,,0.17,Wunderground v.1.13,2013-08-08 14:45:00,
2013-08-08 10:50:00,73.7,70.3,30.00,WSW,240,0.0,0.0,89,0.00,,,0.17,Wunderground v.1.13,2013-08-08 14:50:00,
2013-08-08 10:55:00,73.9,70.5,30.00,WSW,240,0.0,0.0,89,0.00,,,0.17,Wunderground v.1.13,2013-08-08 14:55:00,
2013-08-08 11:00:00,73.9,70.1,30.00,WSW,240,0.0,0.0,88,0.00,,,0.17,Wunderground v.1.13,2013-08-08 15:00:00,
2013-08-08 11:10:00,74.0,70.6,30.00,WSW,240,0.0,0.0,89,0.00,,,0.17,Wunderground v.1.13,2013-08-08 15:10:00,
2013-08-08 11:15:00,74.0,70.6,30.00,WSW,240,0.0,0.0,89,0.00,,,0.17,Wunderground v.1.13,2013-08-08 15:15:00,
2013-08-08 11:25:00,74.2,70.4,30.00,WSW,240,0.0,0.0,88,0.00,,,0.17,Wunderground v.1.13,2013-08-08 15:25:00,
2013-08-08 11:30:00,74.2,70.4,30.00,WSW,240,0.0,0.0,88,0.00,,,0.17,Wunderground v.1.13,2013-08-08 15:30:00,
2013-08-08 11:40:00,74.6,70.8,30.00,WSW,237,0.0,0.0,88,0.00,,,0.17,Wunderground v.1.13,2013-08-08 15:40:00,
2013-08-08 11:45:00,74.9,70.8,29.99,WSW,237,0.0,0.0,87,0.00,,,0.17,Wunderground v.1.13,2013-08-08 15:45:00,
2013-08-08 11:50:00,75.4,70.9,29.99,SE,136,0.0,0.0,86,0.00,,,0.17,Wunderground v.1.13,2013-08-08 15:50:00,
2013-08-08 11:55:00,75.8,71.0,29.99,South,185,0.0,0.0,85,0.00,,,0.17,Wunderground v.1.13,2013-08-08 15:55:00,
2013-08-08 12:00:00,75.8,70.6,29.99,SE,140,0.0,0.0,84,0.00,,,0.17,Wunderground v.1.13,2013-08-08 16:00:00,
2013-08-08 12:10:00,75.6,70.4,29.99,SE,140,0.0,0.0,84,0.00,,,0.17,Wunderground v.1.13,2013-08-08 16:10:00,
2013-08-08 12:15:00,75.3,70.5,30.00,SSE,154,0.0,0.0,85,0.00,,,0.17,Wunderground v.1.13,2013-08-08 16:15:00,
2013-08-08 12:25:00,74.9,70.8,30.00,SSE,154,0.0,0.0,87,0.00,,,0.17,Wunderground v.1.13,2013-08-08 16:25:00,
2013-08-08 12:30:00,74.9,70.8,30.00,SSE,154,0.0,0.0,87,0.00,,,0.17,Wunderground v.1.13,2013-08-08 16:30:00,
2013-08-08 12:35:00,74.9,70.8,30.00,SSE,154,0.0,0.0,87,0.00,,,0.17,Wunderground v.1.13,2013-08-08 16:35:00,
2013-08-08 12:40:00,74.7,70.9,30.00,SSE,154,0.0,0.0,88,0.00,,,0.17,Wunderground v.1.13,2013-08-08 16:40:00,
2013-08-08 12:45:00,74.7,70.9,30.00,SSE,154,0.0,0.0,88,0.00,,,0.17,Wunderground v.1.13,2013-08-08 16:45:00,
2013-08-08 12:55:00,74.9,71.1,30.00,SSE,148,0.0,0.0,88,0.00,,,0.17,Wunderground v.1.13,2013-08-08 16:55:00,
2013-08-08 13:00:00,75.1,71.0,30.00,SSE,148,0.0,1.0,87,0.00,,,0.17,Wunderground v.1.13,2013-08-08 17:00:00,
2013-08-08 13:10:00,75.1,71.0,30.00,SE,145,0.0,0.0,87,0.00,,,0.17,Wunderground v.1.13,2013-08-08 17:10:00,
2013-08-08 13:15:00,75.3,71.2,30.00,SE,145,0.0,0.0,87,0.00,,,0.17,Wunderground v.1.13,2013-08-08 17:15:00,
2013-08-08 13:25:00,75.4,71.3,30.00,SE,145,0.0,0.0,87,0.00,,,0.17,Wunderground v.1.13,2013-08-08 17:25:00,
2013-08-08 13:30:00,75.4,71.3,30.00,SE,145,0.0,0.0,87,0.00,,,0.17,Wunderground v.1.13,2013-08-08 17:30:00,
2013-08-08 13:40:00,75.6,70.8,30.00,SE,133,0.0,0.0,85,0.00,,,0.17,Wunderground v.1.13,2013-08-08 17:40:00,
2013-08-08 13:45:00,75.6,70.8,30.00,SE,133,0.0,0.0,85,0.00,,,0.17,Wunderground v.1.13,2013-08-08 17:45:00,
2013-08-08 13:50:00,75.6,70.8,30.00,SE,133,0.0,0.0,85,0.00,,,0.17,Wunderground v.1.13,2013-08-08 17:50:00,
2013-08-08 14:00:00,76.0,71.2,30.00,SE,133,0.0,0.0,85,0.00,,,0.17,Wunderground v.1.13,2013-08-08 18:00:00,
2013-08-08 14:05:00,76.5,70.9,30.00,SE,133,0.0,0.0,83,0.00,,,0.17,Wunderground v.1.13,2013-08-08 18:05:00,
2013-08-08 14:10:00,76.8,71.2,30.00,SSW,199,1.0,1.0,83,0.00,,,0.17,Wunderground v.1.13,2013-08-08 18:10:00,
2013-08-08 14:20:00,77.7,71.0,30.00,South,181,0.0,0.0,80,0.00,,,0.17,Wunderground v.1.13,2013-08-08 18:20:00,
2013-08-08 14:25:00,77.9,70.9,30.00,ESE,112,0.0,0.0,79,0.00,,,0.17,Wunderground v.1.13,2013-08-08 18:25:00,
2013-08-08 14:30:00,78.1,71.4,30.00,ESE,112,0.0,0.0,80,0.00,,,0.17,Wunderground v.1.13,2013-08-08 18:30:00,
2013-08-08 14:40:00,78.3,71.6,30.00,NE,44,0.0,0.0,80,0.00,,,0.17,Wunderground v.1.13,2013-08-08 18:40:00,
2013-08-08 14:45:00,78.6,71.5,30.00,ESE,106,0.0,1.0,79,0.00,,,0.17,Wunderground v.1.13,2013-08-08 18:45:00,
2013-08-08 14:55:00,79.8,71.6,30.00,ENE,72,0.0,0.0,76,0.00,,,0.17,Wunderground v.1.13,2013-08-08 18:55:00,
2013-08-08 15:00:00,79.9,72.0,29.99,ESE,120,0.0,1.0,77,0.00,,,0.17,Wunderground v.1.13,2013-08-08 19:00:00,
2013-08-08 15:10:00,80.3,72.0,29.99,ENE,62,0.0,0.0,76,0.00,,,0.17,Wunderground v.1.13,2013-08-08 19:10:00,
2013-08-08 15:15:00,80.5,71.8,29.98,South,178,0.0,0.0,75,0.00,,,0.17,Wunderground v.1.13,2013-08-08 19:15:00,
2013-08-08 15:20:00,80.9,71.8,29.98,SE,133,0.0,0.0,74,0.00,,,0.17,Wunderground v.1.13,2013-08-08 19:20:00,
2013-08-08 15:25:00,81.2,71.3,29.98,SE,133,0.0,0.0,72,0.00,,,0.17,Wunderground v.1.13,2013-08-08 19:25:00,
2013-08-08 15:35:00,80.9,72.2,29.98,SE,136,0.0,0.0,75,0.00,,,0.17,Wunderground v.1.13,2013-08-08 19:35:00,
2013-08-08 15:40:00,80.9,71.8,29.98,SE,136,0.0,0.0,74,0.00,,,0.17,Wunderground v.1.13,2013-08-08 19:40:00,
2013-08-08 15:45:00,81.1,71.6,29.97,SSE,147,0.0,0.0,73,0.00,,,0.17,Wunderground v.1.13,2013-08-08 19:45:00,
2013-08-08 15:55:00,81.2,72.1,29.97,ESE,120,0.0,0.0,74,0.00,,,0.17,Wunderground v.1.13,2013-08-08 19:55:00,
2013-08-08 16:00:00,80.7,72.0,29.97,SE,127,0.0,0.0,75,0.00,,,0.17,Wunderground v.1.13,2013-08-08 20:00:00,
2013-08-08 16:10:00,79.9,71.7,29.97,SE,138,0.0,3.0,76,0.00,,,0.17,Wunderground v.1.13,2013-08-08 20:10:00,
2013-08-08 16:15:00,79.8,71.9,29.98,SE,144,0.0,0.0,77,0.00,,,0.17,Wunderground v.1.13,2013-08-08 20:15:00,
2013-08-08 16:20:00,79.6,71.4,29.98,ESE,106,0.0,1.0,76,0.00,,,0.17,Wunderground v.1.13,2013-08-08 20:20:00,
2013-08-08 16:30:00,79.2,71.0,29.98,SE,143,1.0,6.0,76,0.00,,,0.17,Wunderground v.1.13,2013-08-08 20:30:00,
2013-08-08 16:35:00,79.0,71.2,29.98,SSE,148,1.0,1.0,77,0.00,,,0.17,Wunderground v.1.13,2013-08-08 20:35:00,
2013-08-08 16:40:00,78.8,71.4,29.98,SE,144,1.0,2.0,78,0.00,,,0.17,Wunderground v.1.13,2013-08-08 20:40:00,
2013-08-08 16:45:00,78.6,71.5,29.98,SSW,192,1.0,1.0,79,0.00,,,0.18,Wunderground v.1.13,2013-08-08 20:45:00,
2013-08-08 16:55:00,78.1,72.5,29.98,ESE,109,0.0,0.0,83,0.10,,,0.20,Wunderground v.1.13,2013-08-08 20:55:00,
2013-08-08 17:00:00,77.7,73.2,29.97,SE,141,0.0,0.0,86,0.06,,,0.21,Wunderground v.1.13,2013-08-08 21:00:00,
2013-08-08 17:10:00,77.6,73.4,29.97,SE,134,0.0,0.0,87,0.06,,,0.21,Wunderground v.1.13,2013-08-08 21:10:00,
2013-08-08 17:15:00,77.6,73.4,29.97,SE,131,1.0,7.0,87,0.04,,,0.21,Wunderground v.1.13,2013-08-08 21:15:00,
2013-08-08 17:20:00,77.0,72.5,29.97,ESE,116,2.0,2.0,86,0.00,,,0.21,Wunderground v.1.13,2013-08-08 21:20:00,
2013-08-08 17:30:00,76.3,72.5,29.97,SE,127,2.0,2.0,88,0.00,,,0.21,Wunderground v.1.13,2013-08-08 21:30:00,
2013-08-08 17:35:00,76.1,72.3,29.97,SE,144,1.0,1.0,88,0.00,,,0.21,Wunderground v.1.13,2013-08-08 21:35:00,
2013-08-08 17:45:00,75.8,72.0,29.98,SSE,162,1.0,3.0,88,0.00,,,0.21,Wunderground v.1.13,2013-08-08 21:45:00,
2013-08-08 17:50:00,75.6,71.8,29.98,SSE,154,1.0,1.0,88,0.00,,,0.21,Wunderground v.1.13,2013-08-08 21:50:00,
2013-08-08 17:55:00,75.4,71.6,29.98,SE,131,1.0,1.0,88,0.00,,,0.21,Wunderground v.1.13,2013-08-08 21:55:00,
2013-08-08 18:10:00,75.8,72.0,29.97,South,171,0.0,1.0,88,0.00,,,0.21,Wunderground v.1.13,2013-08-08 22:10:00,
2013-08-08 18:15:00,76.0,71.8,29.97,SE,134,1.0,2.0,87,0.00,,,0.21,Wunderground v.1.13,2013-08-08 22:15:00,
2013-08-08 18:25:00,75.8,71.7,29.97,SE,134,0.0,0.0,87,0.00,,,0.21,Wunderground v.1.13,2013-08-08 22:25:00,
2013-08-08 18:30:00,75.8,71.7,29.97,SE,136,0.0,0.0,87,0.00,,,0.21,Wunderground v.1.13,2013-08-08 22:30:00,
2013-08-08 18:40:00,75.6,71.5,29.97,SE,134,0.0,0.0,87,0.00,,,0.21,Wunderground v.1.13,2013-08-08 22:40:00,
2013-08-08 18:45:00,75.4,71.3,29.97,SE,134,0.0,0.0,87,0.00,,,0.21,Wunderground v.1.13,2013-08-08 22:45:00,
2013-08-08 18:50:00,75.4,70.9,29.97,SW,217,0.0,0.0,86,0.00,,,0.21,Wunderground v.1.13,2013-08-08 22:50:00,
2013-08-08 19:00:00,75.3,70.8,29.97,West,278,0.0,0.0,86,0.00,,,0.21,Wunderground v.1.13,2013-08-08 23:00:00,
2013-08-08 19:05:00,75.3,70.8,29.97,ESE,110,0.0,0.0,86,0.00,,,0.22,Wunderground v.1.13,2013-08-08 23:05:00,
2013-08-08 19:10:00,75.1,70.6,29.97,ESE,110,0.0,0.0,86,0.00,,,0.22,Wunderground v.1.13,2013-08-08 23:10:00,
2013-08-08 19:15:00,74.9,70.8,29.97,ESE,110,0.0,0.0,87,0.00,,,0.22,Wunderground v.1.13,2013-08-08 23:15:00,
2013-08-08 19:25:00,74.7,70.9,29.97,ESE,110,0.0,0.0,88,0.00,,,0.22,Wunderground v.1.13,2013-08-08 23:25:00,
2013-08-08 19:35:00,74.4,70.9,29.98,ESE,110,0.0,0.0,89,0.00,,,0.22,Wunderground v.1.13,2013-08-08 23:35:00,
2013-08-08 19:40:00,74.0,70.6,29.98,ESE,110,0.0,0.0,89,0.00,,,0.22,Wunderground v.1.13,2013-08-08 23:40:00,
2013-08-08 19:45:00,73.9,70.8,29.97,ESE,110,0.0,0.0,90,0.00,,,0.22,Wunderground v.1.13,2013-08-08 23:45:00,
2013-08-08 19:55:00,73.9,71.1,29.97,ESE,110,0.0,0.0,91,0.00,,,0.22,Wunderground v.1.13,2013-08-08 23:55:00,
2013-08-08 20:00:00,73.7,70.9,29.98,ESE,110,0.0,0.0,91,0.00,,,0.22,Wunderground v.1.13,2013-08-09 00:00:00,
2013-08-08 20:05:00,73.7,70.9,29.98,ESE,110,0.0,0.0,91,0.00,,,0.22,Wunderground v.1.13,2013-08-09 00:05:00,
2013-08-08 20:10:00,73.7,70.9,29.98,ESE,110,0.0,0.0,91,0.00,,,0.22,Wunderground v.1.13,2013-08-09 00:10:00,
2013-08-08 20:20:00,73.5,70.7,29.98,ESE,110,0.0,0.0,91,0.00,,,0.22,Wunderground v.1.13,2013-08-09 00:20:00,
2013-08-08 20:25:00,73.3,70.5,29.98,ESE,110,0.0,0.0,91,0.00,,,0.22,Wunderground v.1.13,2013-08-09 00:25:00,
2013-08-08 20:30:00,73.2,70.4,29.98,ESE,110,0.0,0.0,91,0.00,,,0.22,Wunderground v.1.13,2013-08-09 00:30:00,
2013-08-08 20:45:00,72.8,70.0,29.98,ESE,110,0.0,0.0,91,0.00,,,0.22,Wunderground v.1.13,2013-08-09 00:45:00,
2013-08-08 21:00:00,72.5,69.7,29.98,ESE,110,0.0,0.0,91,0.00,,,0.22,Wunderground v.1.13,2013-08-09 01:00:00,
2013-08-08 21:15:00,72.5,70.0,29.98,ESE,110,0.0,0.0,92,0.00,,,0.22,Wunderground v.1.13,2013-08-09 01:15:00,
2013-08-08 21:25:00,72.5,70.0,29.98,ESE,110,0.0,0.0,92,0.00,,,0.22,Wunderground v.1.13,2013-08-09 01:25:00,
2013-08-08 21:35:00,72.5,70.0,29.98,N/A,-737280,0.0,0.0,92,0.00,,,0.22,Wunderground v.1.13,2013-08-09 01:35:00,
2013-08-08 21:45:00,72.5,70.0,29.99,ESE,110,0.0,0.0,92,0.00,,,0.22,Wunderground v.1.13,2013-08-09 01:45:00,
2013-08-08 21:50:00,72.5,70.0,29.99,ESE,110,0.0,0.0,92,0.00,,,0.22,Wunderground v.1.13,2013-08-09 01:50:00,
2013-08-08 21:55:00,72.5,70.0,29.99,ESE,110,0.0,0.0,92,0.00,,,0.22,Wunderground v.1.13,2013-08-09 01:55:00,
2013-08-08 22:00:00,72.5,70.0,29.98,ESE,110,0.0,0.0,92,0.00,,,0.22,Wunderground v.1.13,2013-08-09 02:00:00,
2013-08-08 22:15:00,72.3,69.8,29.98,ESE,110,0.0,0.0,92,0.00,,,0.22,Wunderground v.1.13,2013-08-09 02:15:00,
2013-08-08 22:25:00,72.3,70.2,29.98,ESE,110,0.0,0.0,93,0.00,,,0.22,Wunderground v.1.13,2013-08-09 02:25:00,
2013-08-08 22:35:00,72.3,70.2,29.98,ESE,110,0.0,0.0,93,0.00,,,0.22,Wunderground v.1.13,2013-08-09 02:35:00,
2013-08-08 22:40:00,72.3,70.2,29.98,ESE,110,0.0,0.0,93,0.00,,,0.22,Wunderground v.1.13,2013-08-09 02:40:00,
2013-08-08 22:45:00,72.3,70.2,29.98,ESE,110,0.0,0.0,93,0.00,,,0.22,Wunderground v.1.13,2013-08-09 02:45:00,
2013-08-08 22:50:00,72.3,70.2,29.98,ESE,110,0.0,0.0,93,0.00,,,0.22,Wunderground v.1.13,2013-08-09 02:50:00,
2013-08-08 23:00:00,72.3,70.2,29.98,ESE,112,0.0,0.0,93,0.00,,,0.22,Wunderground v.1.13,2013-08-09 03:00:00,
2013-08-08 23:05:00,72.3,70.2,29.98,ESE,112,0.0,0.0,93,0.00,,,0.22,Wunderground v.1.13,2013-08-09 03:05:00,
2013-08-08 23:10:00,72.3,70.2,29.98,ESE,112,0.0,0.0,93,0.00,,,0.22,Wunderground v.1.13,2013-08-09 03:10:00,
2013-08-08 23:15:00,72.3,70.2,29.97,ESE,112,0.0,0.0,93,0.00,,,0.22,Wunderground v.1.13,2013-08-09 03:15:00,
2013-08-08 23:25:00,72.1,70.0,29.97,ESE,112,0.0,0.0,93,0.00,,,0.22,Wunderground v.1.13,2013-08-09 03:25:00,
2013-08-08 23:30:00,72.1,70.0,29.97,ESE,112,0.0,0.0,93,0.00,,,0.22,Wunderground v.1.13,2013-08-09 03:30:00,
2013-08-08 23:40:00,72.1,70.0,29.97,SE,137,0.0,0.0,93,0.00,,,0.22,Wunderground v.1.13,2013-08-09 03:40:00,
2013-08-08 23:45:00,72.1,70.0,29.97,SE,141,0.0,0.0,93,0.00,,,0.22,Wunderground v.1.13,2013-08-09 03:45:00,
2013-08-08 23:55:00,72.1,70.0,29.97,SE,141,0.0,0.0,93,0.00,,,0.22,Wunderground v.1.13,2013-08-09 03:55:00,